When you browse on this site, cookies collect data to enhance your experience and personalize the content and advertising you see.
Visit our Privacy Policy to learn more. By continuing to use the site, you agree to this use of cookies and data.
  • In United Kingdom
  • List of Countries
  • For 7 days
  • Water Temperature
  • Weather Map
  • Weather Widgets
  • user-avatar
    Login

    Hourly Weather Piaui

    Today, 20 September, Friday

    Time Temperature Precipitation Wind Pressure Humidity
    00:00 +27°C° 0 mm 3 mps 718 mmHg 34%
    01:00 +26°C° 0 mm 3 mps 718 mmHg 42%
    02:00 +26°C° 0 mm 3 mps 718 mmHg 49%
    03:00 +25°C° 0 mm 2 mps 718 mmHg 58%
    04:00 +25°C° 0 mm 3 mps 719 mmHg 62%
    05:00 +24°C° 0 mm 3 mps 719 mmHg 66%
    06:00 +22°C° 0 mm 3 mps 720 mmHg 70%
    07:00 +25°C° 0 mm 4 mps 720 mmHg 63%
    08:00 +27°C° 0 mm 4 mps 721 mmHg 56%
    09:00 +29°C° 0 mm 4 mps 721 mmHg 48%
    10:00 +33°C° 0 mm 4 mps 721 mmHg 40%
    11:00 +35°C° 0 mm 4 mps 721 mmHg 32%
    12:00 +38°C° 0 mm 4 mps 721 mmHg 23%
    13:00 +40°C° 0 mm 4 mps 720 mmHg 21%
    14:00 +40°C° 0 mm 4 mps 719 mmHg 18%
    15:00 +41°C° 0 mm 4 mps 718 mmHg 16%
    16:00 +38°C° 0 mm 3 mps 718 mmHg 18%
    17:00 +36°C° 0 mm 3 mps 718 mmHg 20%
    18:00 +32°C° 0 mm 2 mps 718 mmHg 22%
    19:00 +31°C° 0 mm 2 mps 718 mmHg 24%
    20:00 +29°C° 0 mm 2 mps 719 mmHg 27%
    21:00 +27°C° 0 mm 2 mps 719 mmHg 29%
    22:00 +27°C° 0 mm 2 mps 719 mmHg 29%
    23:00 +27°C° 0 mm 2 mps 719 mmHg 30%

    Tomorrow, 21 September, Saturday

    Time Temperature Precipitation Wind Pressure Humidity
    00:00 +26°C° 0 mm 2 mps 719 mmHg 30%
    01:00 +26°C° 0 mm 3 mps 719 mmHg 36%
    02:00 +25°C° 0 mm 3 mps 718 mmHg 42%
    03:00 +24°C° 0 mm 3 mps 718 mmHg 48%
    04:00 +22°C° 0 mm 3 mps 719 mmHg 59%
    05:00 +22°C° 0 mm 3 mps 719 mmHg 70%
    06:00 +21°C° 0 mm 3 mps 720 mmHg 81%
    07:00 +24°C° 0 mm 3 mps 720 mmHg 72%
    08:00 +26°C° 0 mm 4 mps 721 mmHg 63%
    09:00 +29°C° 0 mm 4 mps 721 mmHg 54%
    10:00 +32°C° 0 mm 4 mps 721 mmHg 45%
    11:00 +35°C° 0 mm 4 mps 720 mmHg 36%
    12:00 +37°C° 0 mm 3 mps 720 mmHg 28%
    13:00 +38°C° 0 mm 4 mps 719 mmHg 25%
    14:00 +40°C° 0 mm 4 mps 718 mmHg 22%
    15:00 +40°C° 0 mm 4 mps 718 mmHg 19%
    16:00 +37°C° 0 mm 4 mps 717 mmHg 22%
    17:00 +35°C° 0 mm 3 mps 717 mmHg 26%
    18:00 +31°C° 0 mm 2 mps 717 mmHg 29%
    19:00 +30°C° 0 mm 2 mps 718 mmHg 31%
    20:00 +28°C° 0 mm 2 mps 718 mmHg 33%
    21:00 +26°C° 0 mm 1 mps 719 mmHg 36%
    22:00 +26°C° 0 mm 2 mps 718 mmHg 35%
    23:00 +25°C° 0 mm 2 mps 718 mmHg 34%

    Day after tomorrow, 22 September, Sunday

    Time Temperature Precipitation Wind Pressure Humidity
    00:00 +25°C° 0 mm 2 mps 718 mmHg 34%
    01:00 +24°C° 0 mm 3 mps 718 mmHg 39%
    02:00 +24°C° 0 mm 3 mps 718 mmHg 44%
    03:00 +22°C° 0 mm 3 mps 718 mmHg 50%
    04:00 +22°C° 0 mm 3 mps 719 mmHg 57%
    05:00 +21°C° 0 mm 3 mps 719 mmHg 65%
    06:00 +21°C° 0 mm 3 mps 720 mmHg 72%
    07:00 +23°C° 0 mm 4 mps 720 mmHg 64%
    08:00 +26°C° 0 mm 4 mps 721 mmHg 56%
    09:00 +29°C° 0 mm 5 mps 722 mmHg 48%
    10:00 +32°C° 0 mm 4 mps 721 mmHg 41%
    11:00 +34°C° 0 mm 4 mps 721 mmHg 35%
    12:00 +37°C° 0 mm 3 mps 720 mmHg 28%
    13:00 +38°C° 0 mm 3 mps 720 mmHg 24%
    14:00 +39°C° 0 mm 3 mps 719 mmHg 20%
    15:00 +40°C° 0 mm 2 mps 718 mmHg 17%
    16:00 +38°C° 0 mm 2 mps 718 mmHg 19%
    17:00 +35°C° 0 mm 2 mps 718 mmHg 21%
    18:00 +32°C° 0 mm 2 mps 718 mmHg 24%
    19:00 +30°C° 0 mm 2 mps 718 mmHg 26%
    20:00 +29°C° 0 mm 2 mps 719 mmHg 27%
    21:00 +28°C° 0 mm 2 mps 719 mmHg 29%
    22:00 +27°C° 0 mm 2 mps 719 mmHg 30%
    23:00 +26°C° 0 mm 2 mps 719 mmHg 31%

    23 September, Monday

    Time Temperature Precipitation Wind Pressure Humidity
    00:00 +25°C° 0 mm 2 mps 719 mmHg 32%
    01:00 +25°C° 0 mm 3 mps 719 mmHg 41%
    02:00 +24°C° 0 mm 3 mps 719 mmHg 50%
    03:00 +23°C° 0 mm 4 mps 719 mmHg 59%
    04:00 +23°C° 0 mm 4 mps 719 mmHg 66%
    05:00 +22°C° 0 mm 4 mps 720 mmHg 72%
    06:00 +22°C° 0 mm 4 mps 720 mmHg 78%
    07:00 +25°C° 0 mm 4 mps 721 mmHg 70%
    08:00 +27°C° 0 mm 5 mps 721 mmHg 61%
    09:00 +29°C° 0 mm 5 mps 722 mmHg 53%
    10:00 +32°C° 0 mm 5 mps 722 mmHg 46%
    11:00 +34°C° 0 mm 4 mps 721 mmHg 40%
    12:00 +36°C° 0 mm 4 mps 721 mmHg 34%
    13:00 +37°C° 0 mm 4 mps 720 mmHg 30%
    14:00 +37°C° 0 mm 4 mps 720 mmHg 27%
    15:00 +38°C° 0 mm 4 mps 719 mmHg 23%
    16:00 +36°C° 0 mm 3 mps 719 mmHg 26%
    17:00 +34°C° 0 mm 3 mps 719 mmHg 28%
    18:00 +31°C° 0 mm 2 mps 719 mmHg 31%
    19:00 +30°C° 0 mm 2 mps 719 mmHg 34%
    20:00 +28°C° 0 mm 2 mps 720 mmHg 37%
    21:00 +27°C° 0 mm 2 mps 720 mmHg 40%
    22:00 +27°C° 0 mm 2 mps 720 mmHg 44%
    23:00 +26°C° 0 mm 3 mps 720 mmHg 48%

    24 September, Tuesday

    Time Temperature Precipitation Wind Pressure Humidity
    00:00 +26°C° 0 mm 3 mps 720 mmHg 52%
    01:00 +25°C° 0 mm 3 mps 720 mmHg 57%
    02:00 +24°C° 0 mm 3 mps 720 mmHg 63%
    03:00 +24°C° 0 mm 3 mps 719 mmHg 69%
    04:00 +22°C° 0 mm 3 mps 720 mmHg 71%
    05:00 +21°C° 0 mm 3 mps 720 mmHg 73%
    06:00 +21°C° 0 mm 3 mps 721 mmHg 75%
    07:00 +23°C° 0 mm 4 mps 721 mmHg 64%
    08:00 +26°C° 0 mm 5 mps 722 mmHg 53%
    09:00 +29°C° 0 mm 5 mps 722 mmHg 42%
    10:00 +32°C° 0 mm 5 mps 722 mmHg 38%
    11:00 +34°C° 0 mm 4 mps 721 mmHg 33%
    12:00 +36°C° 0 mm 4 mps 721 mmHg 29%
    13:00 +36°C° 0 mm 4 mps 720 mmHg 27%
    14:00 +37°C° 0 mm 3 mps 720 mmHg 25%
    15:00 +38°C° 0 mm 3 mps 719 mmHg 23%
    16:00 +36°C° 0 mm 2 mps 719 mmHg 27%
    17:00 +34°C° 0 mm 2 mps 719 mmHg 30%
    18:00 +31°C° 0 mm 2 mps 719 mmHg 33%
    19:00 +29°C° 0 mm 2 mps 719 mmHg 37%
    20:00 +28°C° 0 mm 2 mps 719 mmHg 40%
    21:00 +27°C° 0 mm 2 mps 720 mmHg 43%
    22:00 +26°C° 0 mm 2 mps 719 mmHg 45%
    23:00 +25°C° 0 mm 2 mps 719 mmHg 46%

    25 September, Wednesday

    Time Temperature Precipitation Wind Pressure Humidity
    00:00 +24°C° 0 mm 2 mps 719 mmHg 48%
    01:00 +24°C° 0 mm 2 mps 719 mmHg 51%
    02:00 +23°C° 0 mm 2 mps 718 mmHg 54%
    03:00 +23°C° 0 mm 2 mps 718 mmHg 57%
    04:00 +23°C° 0 mm 2 mps 719 mmHg 62%
    05:00 +21°C° 0 mm 3 mps 719 mmHg 68%
    06:00 +21°C° 0 mm 3 mps 719 mmHg 73%
    07:00 +24°C° 0 mm 3 mps 720 mmHg 65%
    08:00 +27°C° 0 mm 3 mps 720 mmHg 57%
    09:00 +29°C° 0 mm 4 mps 721 mmHg 49%
    10:00 +33°C° 0 mm 3 mps 720 mmHg 41%
    11:00 +36°C° 0 mm 3 mps 720 mmHg 33%
    12:00 +39°C° 0 mm 2 mps 720 mmHg 25%
    13:00 +40°C° 0 mm 2 mps 719 mmHg 22%
    14:00 +41°C° 0 mm 1 mps 718 mmHg 19%
    15:00 +42°C° 0 mm 1 mps 718 mmHg 16%
    16:00 +39°C° 0 mm 1 mps 717 mmHg 19%
    17:00 +36°C° 0 mm 1 mps 717 mmHg 22%
    18:00 +33°C° 0 mm 1 mps 717 mmHg 24%
    19:00 +31°C° 0 mm 1 mps 717 mmHg 27%
    20:00 +29°C° 0 mm 1 mps 718 mmHg 29%
    21:00 +28°C° 0 mm 1 mps 718 mmHg 32%
    22:00 +27°C° 0 mm 1 mps 718 mmHg 32%
    23:00 +27°C° 0 mm 1 mps 717 mmHg 31%
    Show more